Welcome to the New NWS' Forecast!
Most changes are behind the scenes, but click here for differences you might notice.

Regional Weather Roundup (RWR)

Issued by National Weather Service (NWS)

                            
757 
ASUS45 KBOI 201210
RWRID 

IDAHO REGIONAL WEATHER ROUNDUP
NATIONAL WEATHER SERVICE BOISE ID
600 AM MDT MON AUG 20 2018

NOTE: "FAIR" INDICATES FEW OR NO CLOUDS BELOW 12000 FEET
WITH NO SIGNIFICANT WEATHER AND/OR OBSTRUCTIONS TO VISIBILITY

IDZ012-014-201300-
SOUTHWEST IDAHO

  
CITY           SKY/WX    TMP DP  RH WIND       PRES   REMARKS
BOISE          CLEAR     66  45  46 S5        29.86R                  
CALDWELL       NOT AVBL                                               
MOUNTAIN HOME  MOCLDY    66  40  39 NE10      29.84S                  
$$

IDZ016-017-201300-
SOUTHCENTRAL IDAHO

  
CITY           SKY/WX    TMP DP  RH WIND       PRES   REMARKS
BURLEY         PTCLDY    58  43  57 VRB6      29.92F                  
JEROME         NOT AVBL                                               
TWIN FALLS     PTCLDY    74  33  22 S20       29.87F                  
$$

IDZ019>023-201300-
SOUTHEAST IDAHO

  
CITY           SKY/WX    TMP DP  RH WIND       PRES   REMARKS
IDAHO FALLS    CLEAR     47  41  80 N3        30.05S                  
POCATELLO      PTCLDY    52  40  63 SE5       30.01F                  
REXBURG        CLEAR     50  40  68 NE3       30.07R                  
$$

IDZ006-010-011-018-031-032-201300-
CENTRAL IDAHO MOUNTAINS

  
CITY           SKY/WX    TMP DP  RH WIND       PRES   REMARKS
MCCALL         PTCLDY    66  39  37 N14       30.01S                  
HAILEY         CLEAR     54  37  54 NW8       30.06F                  
STANLEY          N/A     38  29  70 CALM      30.13F                  
SALMON         PTCLDY    51  44  77 S5        30.03R                  
CHALLIS        CLEAR     56  37  49 CALM      30.04F                  
$$

IDZ002-004-006-007-026-201300-
NORTHERN IDAHO

  
CITY           SKY/WX    TMP DP  RH WIND       PRES   REMARKS
LEWISTON       CLOUDY    74  46  36 CALM      29.91F HAZE             
LOWELL           N/A     59  56  89 NW6       29.99F                  
COEUR D'ALENE  PTCLDY    61  47  59 N12       29.99R HAZE             
MULLAN PASS    PTCLDY    54  38  54 MISG      30.15R HAZE             
$$